Location: Unspecified
(48.1170°N, 0.0000°E)
Time: 09:41:57
(UTC+00:00)

JY1SAT - Pass Details

Date: 22 September 2019
Orbit: 572 x 591 km, 97.7° (Epoch: 18 October)

Event Time Altitude Azimuth Distance (km) Brightness Sun altitude
Exits shadow 21:02:47 15° 13° (NNE) 1,579 ? -29.4°
Drops below altitude 10° 21:03:41 10° 6° (N) 1,898 ? -29.5°
Sets 21:06:02 0° 356° (N) 2,805 ? -29.8°
